Regional Weather Roundup
Issued by NWS Jackson, KY

Home | Current Version | Previous Version | Graphics & Text | Print | Product List | Glossary On
Versions: 1 2 3 4 5 6 7 8 9 10 11 12 13 14 15 16 17 18 19 20 21 22 23 24 25 26 27 28 29 30 31 32 33 34 35 36 37 38 39 40 41 42 43 44 45 46 47 48 49 50
000
ASUS43 KJKL 170410
RWRJKL

EAST KENTUCKY HOURLY WEATHER ROUNDUP
NATIONAL WEATHER SERVICE JACKSON KY
1200 AM EDT FRI APR 17 2015

NOTE: "FAIR" INDICATES FEW OR NO CLOUDS BELOW 12,000 FEET WITH
NO SIGNIFICANT WEATHER AND/OR OBSTRUCTIONS TO VISIBILITY.

* THESE REPORTS ARE NOT UNDER NWS QUALITY CONTROL AND MAY NOT
  REPORT WEATHER SUCH AS PRECIPITATION AND FOG.

KYZ079-080-083-085-087-088-110-112-115-119-120-170500
...EASTERN KENTUCKY...

CITY           SKY/WX    TMP DP  RH WIND       PRES   REMARKS
JACKSON        CLOUDY    62  57  83 CALM      30.14F
LONDON         MOCLDY    58  52  80 CALM      30.14F
SOMERSET*      MOCLDY    57  55  94 S3        30.14F
MONTICELLO*    MOCLDY    58  57  96 S6        30.16F
MIDDLESBORO*   CLOUDY    58  57  96 CALM      30.16F
HARLAN APT*    CLOUDY    59  52  77 CALM      30.16F
HAZARD APT*    CLOUDY    63  55  77 CALM      30.15F
PIKEVILLE APT* PTCLDY    61  52  72 SE5       30.15F
MOREHEAD APT*  CLOUDY    64  57  77 S3        30.15S
$$

KYZ035-036-041-042-044-050-067-078-099-170500
...CENTRAL KENTUCKY...

CITY           SKY/WX    TMP DP  RH WIND       PRES   REMARKS
MT STERLING*   CLOUDY    63  57  82 SW6       30.14F
FLEMING/MASON* CLOUDY    63  57  82 S6        30.13S
DANVILLE*      MOCLDY    59  55  88 SW3       30.13R
RICHMOND*      MOCLDY    63  55  77 S5        30.11F
LEXINGTON      MOCLDY    62  58  86 S5        30.11F
FRANKFORT      PTCLDY    62  58  86 CALM      30.10S
$$

KYZ091>093-OHZ055-061-077-WVZ005-015-034-035-042-170500
...SOUTHERN OHIO/WEST VIRGINIA...

CITY           SKY/WX    TMP DP  RH WIND       PRES   REMARKS
COVINGTON      CLOUDY    62  60  93 SW5       30.09F
COLUMBUS       MOCLDY    60  54  80 S6        30.09S
DAYTON         MOCLDY    63  60  90 S7        30.09F
WILMINGTON     LGT RAIN  61  58  90 SW10      30.10S FOG
HUNTINGTON     CLOUDY    59  52  77 SE3       30.13S
CHARLESTON     CLEAR     55  49  80 CALM      30.15F
PINEVILLE*     CLOUDY    55  54  97 MISG      30.24S
BECKLEY        CLOUDY    52  48  86 SE7       30.21S
BLUEFIELD      CLOUDY    56  49  77 S12G25    30.22F
$$

VAZ002-007-008-TNZ017-027-036-066-071-170500
...SOUTHWEST VIRGINIA/EAST TENNESSEE...

CITY           SKY/WX    TMP DP  RH WIND       PRES   REMARKS
WISE*          MOCLDY    55  50  82 SE5       30.21F
JONESVILLE*    CLOUDY    55  55 100 CALM      30.19F
ABINGDON*      MOCLDY    56  52  85 E5        30.21F
BRISTOL        MOCLDY    59  51  75 CALM      30.19S
KNOXVILLE      CLOUDY    60  57  89 CALM      30.14F
OAK RIDGE      CLOUDY    61  57  87 CALM      30.16F
CROSSVILLE     CLOUDY    57  54  89 S5        30.15F
NASHVILLE      MOCLDY    59  57  93 S3        30.12S
$$

...KEY TO REMARKS...
VSB - VISIBILITY IN MILES
WCI - WIND CHILL INDEX
HX  - HEAT INDEX

$$



USA.gov is the U.S. government's official web portal to all federal, state and local government web resources and services.